Location: Frauenalb
(48.8336°N, 8.4343°E)
Time: 21:26:38
(UTC+00:00)

Daily predictions for brighter satellites

Satellite Brightness Start Highest point End
(mag) Time Altitude Azimuth Time Altitude Azimuth Time Altitude Azimuth
Cosmos 1869 3.7 16:00:09 10° SSW 16:04:02 64° WNW 16:07:54 10° N
Okean O Rocket 3.3 16:03:05 10° E 16:05:09 13° NE 16:07:14 10° NNE
ISS -3.5 16:04:51 10° W 16:08:13 62° NNW 16:11:37 10° ENE
Cosmos 1464 Rocket 4.3 16:06:17 10° SSE 16:12:20 48° E 16:18:26 10° NNE
Cosmos 1461 3.1 16:09:33 10° SW 16:13:47 71° NW 16:17:53 10° NE
NOAA 6 4.2 16:09:21 10° SE 16:14:17 49° ENE 16:19:14 10° N
Cosmos 2084 4.4 16:14:37 10° NNW 16:18:18 28° NNE 16:22:06 10° E
Cosmos 1408 Rocket 3.9 16:14:51 10° N 16:19:00 43° ENE 16:23:10 10° SSE
Cosmos 1271 Rocket 2.7 16:16:19 10° S 16:20:13 74° E 16:24:12 10° NNE
NOSS 2-1 (E) 2.8 16:17:22 10° SSW 16:20:36 72° SE 16:23:58 10° NE
Cosmos 1697 Rocket 3.5 16:18:05 10° NNW 16:22:58 29° NE 16:27:49 10° ESE
CZ-4B R/B 2.9 16:18:49 10° SSE 16:23:00 87° ENE 16:27:00 10° NNW
GEOS 3 Rocket 4.3 16:18:34 10° E 16:23:17 35° NE 16:27:57 10° NNW
Cosmos 1743 Rocket 4.4 16:19:32 10° N 16:23:17 28° ENE 16:27:01 10° SE
Cosmos 1980 Rocket 3.5 16:20:23 10° N 16:24:29 20° NE 16:28:34 10° E
Lacrosse 5 3.2 16:21:53 10° WNW 16:26:43 44° SW 16:31:31 10° SSE
Nadezhda 4 Rocket 4.2 16:20:32 10° N 16:26:43 53° ENE 16:32:53 10° SSE
deb Kosmos-1763 4.3 16:24:16 10° S 16:27:30 41° ESE 16:30:46 10° NE
SL-16 R/B 4.2 16:26:51 10° NNE 16:27:40 10° NNE 16:28:29 10° NNE
USA 267 3.4 16:21:51 10° NE 16:28:26 81° NNW 16:34:58 10° WSW
Cosmos 1656 3.8 16:24:07 10° NNW 16:29:31 53° NE 16:34:57 10° SE
USA 305 2.9 16:25:22 10° WSW 16:29:35 81° NNW 16:33:22 13° ENE
CZ-4C R/B 4.2 16:27:05 10° N 16:31:00 49° WNW 16:34:41 10° SW
CZ-2C R/B 3.1 16:26:15 10° S 16:31:15 78° WSW 16:36:06 10° NNW
CZ-4B DEB 4.3 16:28:13 10° SE 16:33:36 57° ENE 16:38:59 10° N
Cosmos 1340 Rocket 3.2 16:32:07 10° N 16:35:59 41° ENE 16:39:51 10° SE
Cosmos 1891 Rocket 4.5 16:30:24 10° S 16:36:34 80° E 16:42:56 10° N
Cosmos 1092 Rocket 4.4 16:30:57 10° N 16:36:54 40° ENE 16:42:48 10° SE
USA 229 DEB 4.0 16:30:43 10° NW 16:37:46 54° NE 16:45:18 10° ESE
USA 229 4.1 16:30:49 10° NW 16:37:52 53° NE 16:45:23 10° ESE
Cosmos 990 Rocket 4.2 16:35:57 10° NNW 16:41:00 47° ENE 16:45:59 10° SE
AQUARIUS 4.1 16:37:56 10° SSE 16:42:23 70° ENE 16:46:53 10° N
Lacrosse 5 rocket 2.6 16:39:41 10° WNW 16:42:51 24° N 16:45:18 14° NE
ATLAS 2AS CENTAUR R/B 3.9 16:38:19 10° W 16:45:30 38° NNW 16:52:25 10° NE
Cosmos 1513 Rocket 4.5 16:39:31 10° S 16:45:37 88° E 16:51:51 10° N
USA 276 2.0 16:42:31 10° WNW 16:45:39 81° N 16:47:51 18° E
SL-16 R/B 4.5 16:43:16 10° WNW 16:45:57 13° NNW 16:48:39 10° N
ATLAS CENTAUR R/B 3.8 16:37:48 10° SSW 16:47:30 39° SE 16:50:57 17° E
Cosmos 1933 4.3 16:45:28 10° SSE 16:48:52 26° E 16:51:18 15° NE
PAYLOAD B 4.3 16:43:43 10° SSE 16:49:13 60° ENE 16:54:45 10° N
SJ 16-02 2.3 16:45:33 10° NNW 16:49:48 52° WSW 16:54:03 10° S
Cosmos 1500 Rocket 3.6 16:49:28 10° N 16:53:53 58° ENE 16:58:14 10° SSE
Cosmos 2034 Rocket 3.9 16:49:37 10° S 16:55:43 69° E 17:01:51 10° NNE
CORIOLIS 4.3 16:54:42 10° SSE 17:00:05 82° WSW 17:05:33 10° NNW
NOSS 3-1 (A) 4.0 16:54:01 10° NW 17:01:18 71° NE 17:09:55 10° SE
USA 306 3.1 16:57:17 10° W 17:01:30 60° NNW 17:04:00 23° NE
CZ-2D R/B 3.1 16:57:46 10° SSE 17:01:36 68° ENE 17:05:25 10° N
NOSS 2-1 (C) 3.9 16:58:47 10° WSW 17:01:51 39° NW 17:04:09 16° NNE
USA 234 4.3 16:56:58 10° SSE 17:03:12 46° SW 17:09:28 10° WNW
Meteor 1-20 Rocket 4.2 16:58:14 10° N 17:04:02 67° ENE 17:09:51 10° SSE
NOSS 3-1 (C) 4.2 16:57:04 10° NW 17:04:28 82° SW 17:13:11 10° SE
Cosmos 1805 Rocket 3.8 17:00:32 10° N 17:04:43 44° ENE 17:08:52 10° SSE
Cosmos 1842 Rocket 3.7 17:03:00 10° SSW 17:07:26 80° W 17:11:57 10° N
Cosmos 1833 Rocket 3.2 17:03:47 10° S 17:08:54 38° ESE 17:11:51 22° NE
Cosmos 2360 4.3 17:04:09 10° NNW 17:09:47 53° NE 17:15:22 10° SE
NOSS 2-1 (D) 4.2 17:08:14 10° WSW 17:11:12 33° NW 17:13:12 18° NNE
NOSS 2-2 (E) 4.5 17:08:41 10° NNW 17:13:29 48° NE 17:18:12 18° ESE
PSLV R/B 3.8 17:09:51 10° S 17:13:30 74° WSW 17:17:14 10° NNW
CZ-4B R/B 3.1 17:08:30 10° SSE 17:13:54 66° ENE 17:19:14 10° N
Sich 1 3.2 17:11:48 10° N 17:15:55 45° ENE 17:20:03 10° SSE
Cosmos 1939 Rocket 4.4 17:13:20 10° SSW 17:17:14 40° W 17:21:08 10° NNW
SMAP 4.1 17:13:30 10° S 17:17:58 47° W 17:22:30 10° NNW
USA 307 3.3 17:13:46 10° W 17:18:00 56° NNW 17:19:51 30° NE
ARGOS 3.2 17:12:54 10° SSE 17:18:11 57° ENE 17:23:30 10° N
ERBS 2.4 17:15:22 10° WSW 17:18:32 60° NNW 17:19:27 39° NNE
Cosmos 1898 Rocket 3.4 17:14:29 10° NNW 17:19:47 71° ENE 17:24:59 10° SSE
H-2A R/B 2.0 17:14:36 10° SSE 17:19:51 90° ENE 17:24:59 10° NNW
Cosmos 1606 4.1 17:16:25 10° SW 17:19:56 37° WNW 17:23:29 10° N
MOS 1-B Rocket 3.9 17:15:04 10° NNE 17:20:45 64° ESE 17:27:02 10° S
Cosmos 1634 Rocket 4.1 17:15:12 10° SSE 17:21:17 53° E 17:27:25 10° NNE
SL-24 R/B - RUBIN 2 4.2 17:18:16 10° NNW 17:22:33 34° NE 17:23:12 33° NE
COSMOS 2455 3.7 17:20:19 10° SSE 17:25:15 27° ESE 17:25:53 27° E
ATLAS CENTAUR R/B 3.1 17:22:57 10° W 17:26:37 27° NW 17:29:27 15° NNE
Cosmos 2221 3.7 17:23:07 10° SSW 17:27:11 43° WNW 17:31:18 10° N
Cosmos 468 Rocket 3.9 17:22:10 10° S 17:27:15 64° ESE 17:30:21 24° NE
Landsat 5 3.8 17:27:17 39° E 17:27:41 40° E 17:31:34 10° S
Cosmos 44 3.9 17:23:37 10° NW 17:28:19 53° WSW 17:32:42 10° SSE
CZ-4 R/B 4.3 17:25:42 10° SSE 17:29:46 63° ENE 17:33:52 10° N
SL-19 R/B 4.5 17:24:00 10° NNE 17:29:56 65° ESE 17:36:19 10° S
COSMO-SKYMED 1 2.5 17:29:13 25° NNE 17:31:39 62° E 17:35:57 10° S
Cosmos 2026 Rocket 3.8 17:28:03 10° N 17:34:16 80° E 17:40:21 10° SSE
Cosmos 540 Rocket 3.7 17:31:06 10° S 17:35:57 46° ESE 17:37:03 40° ENE
SL-08 RB Rocket 3.8 17:31:37 10° SSE 17:36:09 55° ENE 17:40:42 10° N
Cosmos 2195 Rocket 4.5 17:30:12 10° N 17:36:22 85° W 17:42:33 10° S
deb Chang Zheng 4 3.5 17:32:14 10° SSE 17:36:32 85° WSW 17:40:54 10° NNW
CZ-2C R/B 2.4 17:32:51 11° NNE 17:37:53 70° ESE 17:43:02 10° S
SJ-11-01 4.2 17:35:19 10° SSE 17:40:04 85° ENE 17:44:51 10° NNW
USA 308 3.4 17:36:11 10° W 17:40:19 48° NNW 17:41:12 41° NNE
Cosmos 1500 3.0 17:36:34 10° N 17:44:47 - SSE 17:40:06 65° NE
Okean O Rocket 1.5 17:36:21 10° SSE 17:40:49 88° ENE 17:45:18 10° NNW
Helios 1B 4.4 17:40:04 29° NNE 17:42:15 79° ESE 17:46:35 10° S
Cosmos 2360 Rocket 4.1 17:39:30 10° N 17:41:20 13° NNE 17:41:20 13° NNE
ISS -3.2 17:41:59 10° WNW 17:44:55 50° NNW 17:44:55 50° NNW
Meteor 2-21 4.3 17:39:38 10° N 17:45:47 88° E 17:51:51 10° S
CZ-4C R/B 3.1 17:40:09 10° NW 17:46:51 52° NE 17:49:48 36° E
YAOGAN 1 3.5 17:50:22 33° NNE 17:50:22 33° NNE 17:52:57 10° N
Meteor 1-5 Rocket 4.3 17:49:01 10° N 17:54:58 62° ENE 18:00:51 10° SSE
CZ-4 R/B 3.5 18:00:22 17° N 18:00:22 17° N 18:01:24 10° N
Cosmos 2084 3.9 17:53:50 10° NW 17:58:04 62° SW 17:59:42 36° SSE
Cosmos 2369 3.6 17:53:24 10° NNW 17:59:11 84° ENE 18:02:24 27° SSE
Cosmos 2322 Rocket 3.8 17:54:58 10° N 17:57:35 19° NNE 17:57:35 19° NNE
GEOS 3 Rocket 3.9 17:56:54 16° SSE 18:01:06 66° SW 18:06:17 10° NW
NOAA 15 4.4 17:56:13 10° SSE 18:01:30 73° ENE 18:06:46 10° NNW
Cosmos 1782 2.8 17:58:31 10° SSW 18:02:31 76° W 18:02:36 76° WNW
Cosmos 1697 Rocket 3.1 18:01:47 10° NW 18:07:19 60° WSW 18:12:48 10° S
Cosmos 1937 Rocket 3.8 18:02:18 10° NNW 18:07:36 67° WSW 18:12:51 10° S
Cosmos 1763 Rocket 3.9 18:03:57 10° SW 18:08:56 58° WNW 18:11:17 30° N
NOSS 2-2 (C) 4.1 18:04:21 10° NW 18:09:23 81° NE 18:10:58 52° SE
Cosmos 1980 Rocket 2.0 18:03:43 10° NNW 18:09:26 80° ENE 18:10:40 56° SE
USA 305 3.8 18:05:48 10° WNW 18:09:22 40° NNW 18:09:22 40° NNW
Cosmos 841 Rocket 3.4 18:05:21 10° SSW 18:10:10 68° SE 18:10:10 68° SE
USA 267 3.8 18:08:54 35° NE 18:11:04 47° N 18:17:15 10° W
Cosmos 1666 Rocket 4.3 18:08:26 10° N 18:11:32 44° NNW 18:11:32 44° NNW
Cosmos 2333 Rocket 4.4 18:10:31 10° N 18:11:35 12° N 18:11:35 12° N
SL-16 R/B 3.6 18:08:43 10° NNW 18:11:40 25° N 18:11:40 25° N
Spot 2 4.5 18:14:28 16° S 18:18:36 80° WSW 18:23:47 10° NNW
Cosmos 2082 Rocket 2.4 18:13:58 10° SSW 18:18:34 53° SSE 18:18:34 53° SSE
Lacrosse 5 rocket 3.3 18:19:12 10° NW 18:20:53 21° NNW 18:20:53 21° NNW
COSMOS 2406 3.2 18:19:20 10° SSW 18:25:05 79° WNW 18:26:02 62° N
Cosmos 2278 3.6 18:19:30 10° NNW 18:24:47 72° NNE 18:24:47 72° NNE
Cosmos 372 Rocket 4.4 18:29:21 10° NNW 18:34:30 61° WSW 18:35:15 54° SW
ATLAS 2AS CENTAUR R/B 4.2 18:32:26 10° NW 18:38:37 26° N 18:39:54 24° NNE
Meteor 2-8 Rocket 4.4 18:32:56 10° S 18:38:41 80° S 18:38:41 80° S
Cosmos 1833 Rocket 3.7 18:47:29 10° WSW 18:52:47 42° NW 18:53:35 40° NNW
Cosmos 2266 Rocket 4.5 18:53:23 10° NNW 18:58:09 53° NNW 18:58:09 53° NNW
ATLAS CENTAUR R/B 4.4 19:05:07 10° NW 19:05:34 11° NNW 19:05:34 11° NNW
COSMOS 2455 3.7 19:04:47 10° SW 19:09:04 46° WSW 19:09:04 46° WSW
ATLAS CENTAUR R/B 4.3 19:12:47 10° W 19:16:49 28° W 19:16:49 28° W
CZ-4C R/B 3.5 19:28:38 10° NW 19:35:01 55° WSW 19:35:01 55° WSW
